Regional Weather Roundup
Issued by NWS

Home | Current Version | Previous Version | Text Only | Print | Product List | Glossary Off
Versions: 1 2 3 4 5 6 7 8 9 10 11 12 13 14 15 16 17 18 19 20 21 22 23 24 25 26 27 28 29 30 31 32 33 34 35 36 37 38 39 40 41 42 43 44 45 46 47 48 49 50

000
ASUS43 KIND 222109
RWRIN

WEATHER ROUNDUP FOR INDIANA
NATIONAL WEATHER SERVICE INDIANAPOLIS IN
500 PM EDT FRI JUL 22 2016

NOTE: "FAIR" INDICATES FEW OR NO CLOUDS BELOW 12,000 FEET WITH NO
SIGNIFICANT WEATHER AND/OR OBSTRUCTIONS TO VISIBILITY.

* - STATION DOES NOT REPORT WEATHER SUCH AS PRECIPITATION OR FOG.

+ - STATION NOT QUALITY CONTROLLED BY THE NATIONAL WEATHER SERVICE.
    USE DATA WITH CAUTION...ESPECIALLY DEWPOINT AND RELATIVE
    HUMIDITY OBSERVATIONS.

INZ001>003-010>013-019-020-222200-
NORTHWEST INDIANA

CITY           SKY/WX    TMP DP  RH WIND       PRES   REMARKS
GARY /AIRPORT/ MOSUNNY   90  79  70 W7        30.00F HX 105
KNOX *+        MOSUNNY   84  63  48 W3        30.00F
LA PORTE +     MOSUNNY   88  72  58 W3        30.01F
MICHIGAN CITY+ SUNNY     86  70  58 NW5       30.01F
MONTICELLO +   MOSUNNY   85  69  60 NW6       30.00F
RENSSELAER +   MOSUNNY   84  73  70 W7        30.01F
VALPARAISO     MOSUNNY   87  71  58 VRB5      30.00F

$$

LMZ046-743>745-222200-
SOUTHERN LAKE MICHIGAN

STATION/POSITION TIME  TEMP    WIND        PRES    WAVE
                       AIR SEA DIR/SP/G            HT
                 (UTC) (F)     (DEG/KT/KT) (MB)    (FT)
BURNS HARBOR     2007   80     350/  2/  6 1016.6F
MICHIGAN CITY    2000   80     230/  1/  1   N/A
5NW MICH CITY    2100   81 77   CALM  /  2   N/A     1

$$

INZ004-005-014>016-021>024-222200-
NORTH CENTRAL INDIANA

CITY           SKY/WX    TMP DP  RH WIND       PRES   REMARKS
ELKHART        CLOUDY    88  73  62 W8        30.01F HX  96
GOSHEN         SUNNY     89  66  46 W10       30.00F
LOGANSPORT +   PTSUNNY   86  70  58 NW5       30.02S
PERU/GRISSOM   PTSUNNY   88  71  56 W7        30.00F
ROCHESTER +    SUNNY     88  73  62 NW9       30.01F HX  96
SOUTH BEND     SUNNY     85  70  60 VRB6      30.01F
WARSAW +       MOSUNNY   86  68  54 NW7       30.01S

$$

INZ006>009-017-018-025>027-222200-
NORTHEAST INDIANA

CITY           SKY/WX    TMP DP  RH WIND       PRES   REMARKS
ANGOLA *+        N/A     90  84  84 SW7       30.00F HX 115
AUBURN +       SUNNY     90  68  48 W3        30.00F
FORT WAYNE     PTSUNNY   89  69  51 SW6       30.00F
HUNTINGTON +   SUNNY    N/A N/A N/A CALM      30.00F

$$

INZ028-029-035-036-043>045-051>053-222200-
WEST CENTRAL INDIANA

CITY           SKY/WX    TMP DP  RH WIND       PRES   REMARKS
CRAWFORDSVL +  CLOUDY    84  75  75 CALM      30.03F
GREENCASTLE +  CLOUDY    84  75  74 NE5       30.04S
LAFAYETTE      SUNNY     86  73  65 NW7       30.00F
TERRE HAUTE    CLOUDY    87  72  60 CALM      30.02F

$$

INZ030>032-037>040-046>048-054>057-064-065-222200-
CENTRAL INDIANA

CITY           SKY/WX    TMP DP  RH WIND       PRES   REMARKS
FRANKFORT +    MOSUNNY   89  72  56 NW6       30.05S HX  95
INDIANAPOLIS   PTSUNNY   89  68  49 NW12      30.02F
-EAGLE CREEK   MOSUNNY   88  68  51 N10       30.02S
KOKOMO *+      CLOUDY    88  70  55 SW5       30.01S
MARION +       MOSUNNY   85  68  55 CALM      30.02F HAZE
MT COMFORT *+  MOSUNNY   88  70  55 N7        30.03S
SHELBYVILLE    MOSUNNY   89  76  65 S5        30.01F HX 100
ZIONSVILLE +   MOSUNNY   84  73  69 N3        30.04S

$$

INZ033-034-041-042-049-050-058-059-222200-
EAST CENTRAL INDIANA

CITY           SKY/WX    TMP DP  RH WIND       PRES   REMARKS
MUNCIE         MOSUNNY   88  74  63 NW6       30.02F HX  96

$$

INZ060-061-067>069-081>083-085>088-222200-
SOUTHWEST INDIANA

CITY           SKY/WX    TMP DP  RH WIND       PRES   REMARKS
EVANSVILLE     CLOUDY    86  73  65 CALM      30.01F
HUNTINGBURG *+ PTSUNNY   84  73  70 CALM      30.02F
WASHINGTON +   PTSUNNY   82  78  85 MISG      30.01F

$$

INZ062-063-066-070>080-084-089>092-222200-
SOUTH CENTRAL AND SOUTHEAST INDIANA

CITY           SKY/WX    TMP DP  RH WIND       PRES   REMARKS
BLOOMINGTON    MOSUNNY   86  73  65 CALM      30.03F
MADISON *+     CLOUDY    86  70  58 SW6       30.05F
NORTH VERNON + MOSUNNY   86  79  79 CALM      30.05S HX  99
SEYMOUR +      CLOUDY    88  73  62 CALM      30.03S HX  96

$$




USA.gov is the U.S. government's official web portal to all federal, state and local government web resources and services.